Regional Weather Roundup
Issued by NWS

Home | Current Version | Previous Version | Text Only | Print | Product List | Glossary On
Versions: 1 2 3 4 5 6 7 8 9 10 11 12 13 14 15 16 17 18 19 20 21 22 23 24 25 26 27 28 29 30 31 32 33 34 35 36 37 38 39 40 41 42 43 44 45 46 47 48 49 50
000
ASUS45 KABQ 070010
RWRNM
NEW MEXICO REGIONAL WEATHER ROUNDUP
NATIONAL WEATHER SERVICE ALBUQUERQUE NM
600 PM MDT MON JUL 06 2015

NOTE: "FAIR" MEANS FEW OR NO CLOUDS BELOW 12,000 FEET AGL WITH NO
       SIGNIFICANT WEATHER OR OBSTRUCTIONS TO VISION.

      THIS PRODUCT IS RELEASED AS TWO VERSIONS.  ONE VERSION NEAR
      THE TOP OF THE HOUR CONTAINING PRELIMINARY DATA FROM ALBUQUERQUE
      AND OTHER STATIONS.  A FINAL VERSION WITH ADDITIONAL DATA IS
      ISSUED ABOUT 10 MINUTES AFTER THE HOUR.

NMZ501-503-504-510>518-070100-
NORTHWEST PLATEAU/NORTHCENTRAL MOUNTAINS

CITY           SKY/WX    TMP DP  RH WIND       PRES   REMARKS
FARMINGTON     PTSUNNY   75  53  46 N12       30.09R
6HR MIN TEMP:  75; 6HR MAX TEMP:  90;

LOS ALAMOS     CLOUDY    65  56  72 CALM      30.25F
SANTA FE       CLOUDY    72  54  53 SE9       30.18F
6HR MIN TEMP:  69; 6HR MAX TEMP:  81; 6HR PCP: TRACE;

TAOS           PTSUNNY   72  50  46 SE9       30.25S
ANGEL FIRE     FAIR      60  52  75 N6        30.35F

$$
NMZ402-403-502-505>509-070100-
WESTCENTRAL MOUNTAINS/SOUTHWEST MOUNTAINS

CITY           SKY/WX    TMP DP  RH WIND       PRES   REMARKS
GALLUP         LGT RAIN  77  50  38 NW10      30.18S
6HR MIN TEMP:  75; 6HR MAX TEMP:  85; 6HR PCP:  0.01;

GRANTS         CLOUDY    71  57  61 NW9       30.20F
SILVER CITY      N/A     82  50  32 N20G30    30.11R

$$
NMZ407-409-411-412-070100-
SOUTHERN DESERTS

CITY           SKY/WX    TMP DP  RH WIND       PRES   REMARKS
LORDSBURG      FAIR      91  52  25 W12G26    30.00F
DEMING         PTSUNNY   92  51  24 W14G23    29.96F
6HR MIN TEMP:  87; 6HR MAX TEMP:  95;

LAS CRUCES     MOSUNNY   93  48  21 NW9       29.97F
HOLLOMAN AFB     N/A     94  51  22 SW3       29.92F
ALAMOGORDO     SUNNY     93  50  22 W7        29.94F
T OR C         PTSUNNY   89  49  25 NW5       30.00F
6HR MIN TEMP:  85; 6HR MAX TEMP:  93;


$$
NMZ519>523-070100-
CENTRAL VALLEYS/CENTRAL HIGHLANDS

CITY           SKY/WX    TMP DP  RH WIND       PRES   REMARKS
ALBUQUERQUE    CLOUDY    73  61  64 E20       30.09R
                                      6HR PCP:  0.69;

MORIARTY ARPT  LGT RAIN  64  58  82 NE15G22   30.19F
6HR MIN TEMP:  60; 6HR MAX TEMP:  84; 6HR PCP:  0.56;

CLINES CORNERS LGT RAIN  63  59  87 E8        30.25R FOG
6HR MIN TEMP:  61; 6HR MAX TEMP:  71; 6HR PCP:  0.90;

BELEN          MOCLDY    86  51  29 NE10      30.03F
6HR MIN TEMP:  82; 6HR MAX TEMP:  90;

SOCORRO        FAIR      91  45  20 NW6       30.00F
6HR MIN TEMP:  81; 6HR MAX TEMP:  91;


$$
NMZ524>526-539-540-070100-
SOUTHCENTRAL MOUNTAINS

CITY           SKY/WX    TMP DP  RH WIND       PRES   REMARKS
RUIDOSO        PTSUNNY   72  59  64 CALM      30.19S

$$
NMZ527>531-070100-
NORTHEAST HIGHLANDS/NORTHEAST PLAINS

CITY           SKY/WX    TMP DP  RH WIND       PRES   REMARKS
LAS VEGAS      CLOUDY    60  57  89 NE13      30.25F
6HR MIN TEMP:  59; 6HR MAX TEMP:  73; 6HR PCP:  0.88;

RATON          CLOUDY    64  59  83 E5        30.24F
6HR MIN TEMP:  63; 6HR MAX TEMP:  66; 6HR PCP:  0.05;

CLAYTON        CLOUDY    67  61  81 N18G26    30.14F
6HR MIN TEMP:  64; 6HR MAX TEMP:  75; 6HR PCP:  0.01;


$$
NMZ532>537-070100-
EASTCENTRAL PLAINS

CITY           SKY/WX    TMP DP  RH WIND       PRES   REMARKS
TUCUMCARI      CLOUDY    76  58  53 NE18G26   30.08R
6HR MIN TEMP:  76; 6HR MAX TEMP:  90;

CANNON AFB     PTSUNNY   73  65  76 NE23      30.02R
6HR MIN TEMP:  73; 6HR MAX TEMP:  89; 6HR PCP: TRACE;

CLOVIS AIRPORT CLOUDY    72  64  78 N22         N/A

$$
NMZ028-029-538-070100-
SOUTHEAST PLAINS

CITY           SKY/WX    TMP DP  RH WIND       PRES   REMARKS
ROSWELL        MOSUNNY   96  56  26 NW7       29.90S
6HR MIN TEMP:  86; 6HR MAX TEMP:  98;

ARTESIA        MOSUNNY   95  59  30 N13       29.88F
CARLSBAD       MOSUNNY   96  58  27 E7        29.84F HX  95
6HR MIN TEMP:  94; 6HR MAX TEMP: 102;

HOBBS          MOSUNNY   84  63  48 S22G29    29.90F


$$


USA.gov is the U.S. government's official web portal to all federal, state and local government web resources and services.